Location: Newark
(13.8117°N, 3.6025°W)
Time: 04:18:19
(UTC+00:00)

N. Korean satellite - Pass Details

Date: 25 August 2019
Orbit: 455 x 508 km, 97.2° (Epoch: 15 September)

Event Time Altitude Azimuth Distance (km) Brightness Sun altitude
Rises 05:08:28 0° 40° (NE) 2,506 11.1 -13.6°
Reaches altitude 10° 05:11:26 10° 68° (ENE) 1,617 10.7 -12.9°
Maximum altitude 05:13:09 13° 98° (E) 1,425 10.0 -12.5°
Drops below altitude 10° 05:14:51 10° 128° (SE) 1,604 9.7 -12.1°
Sets 05:17:45 0° 156° (SSE) 2,469 10.3 -11.4°
